EW5545 Weather Reports


Display with metric or nautical units.
time (UTC)temp
F
wind
direction
speed
MPH
gust
MPH
rain 1hr
in
rain 24hr
in
rain mn
in
humidity
%
barometer
mb
20260502170505 61 50 4.0 9.0 0.00 0.00 0.00 35 1019.6
20260502164007 62 1 2.0 7.0 0.00 0.00 0.00 35 1019.6
20260502163007 62 49 4.0 8.0 0.00 0.00 0.00 35 1019.6
20260502162506 63 8 3.0 7.0 0.00 0.00 0.00 34 1019.6
20260502162006 63 35 4.0 8.0 0.00 0.00 0.00 33 1019.6
20260502161519 63 31 3.0 7.0 0.00 0.00 0.00 34 1019.5
20260502161006 63 321 3.0 7.0 0.00 0.00 0.00 34 1019.6
20260502160506 63 36 6.0 10.0 0.00 0.00 0.00 35 1019.6
20260502152010 63 51 6.0 16.0 0.00 0.00 0.00 35 1019.9
20260502151505 63 43 7.0 15.0 0.00 0.00 0.00 33 1020.0
20260502150507 64 49 7.0 13.0 0.00 0.00 0.00 27 1020.1
20260502130505 63 39 6.0 15.0 0.00 0.00 0.00 35 1020.4
20260502123511 63 56 7.0 15.0 0.00 0.00 0.00 35 1020.5
20260502123005 63 55 6.0 16.0 0.00 0.00 0.00 38 1020.5
20260502122005 63 52 8.0 15.0 0.00 0.00 0.00 36 1020.6
20260502121010 63 49 6.0 15.0 0.00 0.00 0.00 34 1020.7
20260502120505 63 53 8.0 18.0 0.00 0.00 0.00 35 1020.7
20260502115010 63 44 11.0 21.0 0.00 0.00 0.00 39 1020.6
20260502114507 63 57 8.0 17.0 0.00 0.00 0.00 38 1020.6
20260502113010 63 48 10.0 17.0 0.00 0.00 0.00 35 1020.8
20260502112505 63 48 10.0 20.0 0.00 0.00 0.00 36 1020.8
20260502112010 62 51 6.0 20.0 0.00 0.00 0.00 39 1020.8
20260502111010 62 47 10.0 20.0 0.00 0.00 0.00 38 1020.8
20260502110510 62 56 8.0 15.0 0.00 0.00 0.00 37 1020.9
20260502110010 62 35 12.0 22.0 0.00 0.00 0.00 34 1020.9
20260502105507 63 43 9.0 20.0 0.00 0.00 0.00 36 1020.9
20260502105007 62 48 9.0 17.0 0.00 0.00 0.00 38 1020.9
20260502104510 62 45 7.0 16.0 0.00 0.00 0.00 37 1021.0
20260502104005 62 34 8.0 17.0 0.00 0.00 0.00 37 1021.0
20260502103505 62 42 7.0 18.0 0.00 0.00 0.00 37 1021.0
20260502103006 62 56 8.0 18.0 0.00 0.00 0.00 38 1021.1
20260502102505 62 48 10.0 20.0 0.00 0.00 0.00 36 1021.1
20260502102011 62 45 12.0 20.0 0.00 0.00 0.00 37 1021.0
20260502101508 62 43 7.0 16.0 0.00 0.00 0.00 40 1021.0
20260502100506 62 49 12.0 20.0 0.00 0.00 0.00 42 1020.9
20260502091506 62 37 10.0 21.0 0.00 0.00 0.00 41 1021.0
20260502091005 62 29 10.0 18.0 0.00 0.00 0.00 39 1021.0
20260502090507 61 63 11.0 20.0 0.00 0.00 0.00 39 1021.1
20260502071007 58 62 7.0 14.0 0.00 0.00 0.00 53 1021.1
20260502070506 58 47 6.0 12.0 0.00 0.00 0.00 55 1021.1
20260502070006 58 47 6.0 10.0 0.00 0.00 0.00 57 1021.0
20260502065507 58 53 6.0 12.0 0.00 0.00 0.00 60 1021.0
20260502064505 57 44 5.0 13.0 0.00 0.00 0.00 64 1021.0
20260502063506 57 34 5.0 12.0 0.00 0.00 0.00 63 1021.0
20260502063007 57 46 3.0 8.0 0.00 0.00 0.00 65 1021.0
20260502062506 56 46 4.0 8.0 0.00 0.00 0.00 66 1021.0
20260502061505 56 48 5.0 8.0 0.00 0.00 0.00 67 1021.0
20260502061006 56 43 3.0 8.0 0.00 0.00 0.00 68 1021.0
20260502060505 55 41 3.0 7.0 0.00 0.00 0.00 68 1021.0
20260502060005 55 49 4.0 8.0 0.00 0.00 0.00 68 1021.0
20260502055514 55 51 2.0 5.0 0.00 0.00 0.00 70 1021.0
20260502054512 54 56 3.0 7.0 0.00 0.00 0.00 70 1021.0
20260502054005 54 47 3.0 9.0 0.00 0.00 0.00 71 1021.0
20260502053506 53 40 2.0 5.0 0.00 0.00 0.00 71 1020.9
20260502053005 53 44 2.0 3.0 0.00 0.00 0.00 72 1020.9
20260502052507 52 53 1.0 3.0 0.00 0.00 0.00 73 1020.9
20260502052010 51 27 1.0 3.0 0.00 0.00 0.00 74 1020.9
20260502051506 51 87 1.0 3.0 0.00 0.00 0.00 74 1020.9
20260502051005 50 20 1.0 2.0 0.00 0.00 0.00 75 1020.9
20260502045007 49 331 2.0 6.0 0.00 0.00 0.00 75 1020.8
20260502044510 49 338 2.0 3.0 0.00 0.00 0.00 75 1020.8
20260502044006 48 26 2.0 5.0 0.00 0.00 0.00 75 1020.7
20260502043507 48 350 2.0 5.0 0.00 0.00 0.00 75 1020.7
20260502043010 48 14 2.0 5.0 0.00 0.00 0.00 75 1020.6
20260502042510 48 344 2.0 5.0 0.00 0.00 0.00 74 1020.6
20260502042007 48 27 2.0 5.0 0.00 0.00 0.00 73 1020.6
20260502041505 48 292 1.0 5.0 0.00 0.00 0.00 73 1020.5
20260502041010 48 26 2.0 3.0 0.00 0.00 0.00 73 1020.5
20260502040507 48 57 1.0 3.0 0.00 0.00 0.00 73 1020.5
20260502035507 48 312 1.0 3.0 0.00 0.00 0.00 72 1020.5
20260502035005 48 339 1.0 2.0 0.00 0.00 0.00 72 1020.4
20260502034507 48 37 1.0 3.0 0.00 0.00 0.00 72 1020.4
20260502034005 47 21 2.0 3.0 0.00 0.00 0.00 74 1020.4
20260502033510 47 46 1.0 3.0 0.00 0.00 0.00 76 1020.4
20260502033007 47 5 1.0 3.0 0.00 0.00 0.00 77 1020.5
20260502032506 46 342 1.0 3.0 0.00 0.00 0.00 77 1020.5
20260502031506 46 326 0.0 2.0 0.00 0.00 0.00 76 1020.4
20260502031008 47 1 0.0 2.0 0.00 0.00 0.00 76 1020.4
20260502030507 47 29 1.0 2.0 0.00 0.00 0.00 76 1020.4
20260502030005 47 282 1.0 2.0 0.00 0.00 0.00 76 1020.4
20260502025008 47 319 0.0 1.0 0.00 0.00 0.00 77 1020.3
20260502024505 47 324 0.0 3.0 0.00 0.00 0.00 77 1020.3
20260502024006 47 268 0.0 1.0 0.00 0.00 0.00 77 1020.4
20260502023505 47 271 0.0 1.0 0.00 0.00 0.00 76 1020.5
20260502022506 47 260 0.0 2.0 0.00 0.00 0.00 75 1020.5
20260502022007 48 26 0.0 1.0 0.00 0.00 0.00 75 1020.5
20260502021506 48 45 0.0 1.0 0.00 0.00 0.00 74 1020.5
20260502021007 49 45 0.0 1.0 0.00 0.00 0.00 73 1020.4
20260502020505 49 45 0.0 1.0 0.00 0.00 0.00 72 1020.4
20260502020015 49 45 0.0 1.0 0.00 0.00 0.00 72 1020.3
20260502015507 50 26 0.0 2.0 0.00 0.00 0.00 71 1020.3
20260502015011 50 28 0.0 1.0 0.00 0.00 0.00 69 1020.3
20260502014507 50 54 0.0 2.0 0.00 0.00 0.00 68 1020.3
20260502014007 51 45 0.0 2.0 0.00 0.00 0.00 69 1020.2
20260502013507 51 45 1.0 3.0 0.00 0.00 0.00 68 1020.3
20260502013007 51 49 2.0 3.0 0.00 0.00 0.00 69 1020.2
20260502012507 50 54 1.0 3.0 0.00 0.00 0.00 69 1020.2
20260502012005 50 49 2.0 3.0 0.00 0.00 0.00 71 1020.2
20260502011506 49 40 1.0 3.0 0.00 0.00 0.00 74 1020.1
20260502011010 49 50 0.0 1.0 0.00 0.00 0.00 76 1020.2
20260502010506 49 71 1.0 2.0 0.00 0.00 0.00 77 1020.2
20260502010006 49 317 1.0 2.0 0.00 0.00 0.00 78 1020.2
20260502005505 49 260 0.0 0.0 0.00 0.00 0.00 77 1020.2
20260502005007 49 260 0.0 0.0 0.00 0.00 0.00 78 1020.2
20260502004505 48 260 0.0 0.0 0.00 0.00 0.00 79 1020.2
20260502004007 48 260 0.0 0.0 0.00 0.00 0.00 79 1020.2
20260502003510 48 260 0.0 0.0 0.00 0.00 0.00 80 1020.2
20260502003007 48 260 0.0 0.0 0.00 0.00 0.00 80 1020.2
20260502002506 48 260 0.0 0.0 0.00 0.00 0.00 80 1020.3
20260502001507 48 260 0.0 1.0 0.00 0.00 0.00 81 1020.4
20260502001007 48 261 1.0 3.0 0.00 0.00 0.00 81 1020.4
20260502000506 48 261 1.0 3.0 0.00 0.00 0.00 81 1020.4
20260502000008 48 258 1.0 3.0 0.00 0.00 0.00 81 1020.3
20260501235506 48 265 1.0 2.0 0.00 0.00 0.00 81 1020.4
20260501235006 48 266 0.0 1.0 0.00 0.00 0.00 80 1020.4
20260501234507 48 266 0.0 1.0 0.00 0.00 0.00 81 1020.3
20260501234007 48 266 1.0 1.0 0.00 0.00 0.00 80 1020.3
20260501233507 48 51 0.0 1.0 0.00 0.00 0.00 80 1020.3
20260501232506 49 51 0.0 1.0 0.00 0.00 0.00 78 1020.3
20260501232007 49 51 0.0 1.0 0.00 0.00 0.00 77 1020.4
20260501231507 50 51 0.0 1.0 0.00 0.00 0.00 76 1020.4
20260501231007 50 51 0.0 1.0 0.00 0.00 0.00 76 1020.5
20260501230505 50 51 1.0 2.0 0.00 0.00 0.00 76 1020.5
20260501230006 50 46 1.0 3.0 0.00 0.00 0.00 76 1020.4
20260501225507 49 52 1.0 3.0 0.00 0.00 0.00 76 1020.4
20260501224506 49 296 1.0 3.0 0.00 0.00 0.00 76 1020.1
20260501224006 49 278 1.0 2.0 0.00 0.00 0.00 75 1020.0
20260501223507 49 273 0.0 3.0 0.00 0.00 0.00 75 1020.0
20260501223007 49 298 0.0 6.0 0.00 0.00 0.00 75 1020.0
20260501222506 49 254 3.0 6.0 0.00 0.00 0.00 75 1020.0
20260501222007 49 239 2.0 3.0 0.00 0.00 0.00 74 1020.0
20260501221510 49 244 1.0 3.0 0.00 0.00 0.00 74 1020.0
20260501221011 49 242 1.0 5.0 0.00 0.00 0.00 74 1020.0
20260501220507 49 245 1.0 3.0 0.00 0.00 0.00 74 1020.0
20260501220007 49 254 1.0 3.0 0.00 0.00 0.00 74 1020.1
20260501215506 49 246 1.0 3.0 0.00 0.00 0.00 74 1020.1
20260501215006 49 247 2.0 5.0 0.00 0.00 0.00 74 1020.1
20260501213508 49 241 1.0 3.0 0.00 0.00 0.00 73 1020.2
20260501213010 49 254 2.0 3.0 0.00 0.00 0.00 73 1020.2
20260501212507 49 251 2.0 5.0 0.00 0.00 0.00 72 1020.2
20260501211506 48 247 2.0 3.0 0.00 0.00 0.00 71 1020.3
20260501211007 48 253 2.0 5.0 0.00 0.00 0.00 71 1020.3
20260501210507 48 246 1.0 3.0 0.00 0.00 0.00 70 1020.3
20260501210007 48 245 2.0 5.0 0.00 0.00 0.00 70 1020.3
20260501205506 48 252 2.0 3.0 0.00 0.00 0.00 69 1020.4
20260501205006 48 251 2.0 3.0 0.00 0.00 0.00 68 1020.4
20260501204510 48 248 2.0 3.0 0.00 0.00 0.00 68 1020.4
20260501204007 48 249 1.0 3.0 0.00 0.00 0.00 68 1020.4
20260501203507 48 239 1.0 3.0 0.00 0.00 0.00 68 1020.4
20260501203011 48 235 0.0 1.0 0.00 0.00 0.00 68 1020.3
20260501202506 48 235 1.0 2.0 0.00 0.00 0.00 68 1020.3
20260501202007 48 240 1.0 3.0 0.00 0.00 0.00 68 1020.4
20260501201006 50 247 1.0 2.0 0.00 0.00 0.00 65 1020.3
20260501200507 51 227 0.0 3.0 0.00 0.00 0.00 62 1020.3
20260501200005 51 19 1.0 3.0 0.00 0.00 0.00 62 1020.3
20260501195007 51 304 1.0 3.0 0.00 0.00 0.00 60 1020.3
20260501194507 52 36 2.0 7.0 0.00 0.00 0.00 60 1020.2
20260501194006 52 13 1.0 5.0 0.00 0.00 0.00 60 1020.2
20260501193007 52 351 2.0 5.0 0.00 0.00 0.00 59 1020.1
20260501192011 52 43 2.0 5.0 0.00 0.00 0.00 59 1020.0
20260501191506 52 46 1.0 3.0 0.00 0.00 0.00 59 1020.0
20260501191007 52 23 1.0 3.0 0.00 0.00 0.00 59 1020.0
20260501190507 53 352 2.0 5.0 0.00 0.00 0.00 58 1019.9
20260501190007 53 12 2.0 3.0 0.00 0.00 0.00 58 1019.9
20260501185506 53 30 2.0 7.0 0.00 0.00 0.00 58 1019.9
20260501185008 53 16 2.0 8.0 0.00 0.00 0.00 57 1019.9
20260501184507 53 50 3.0 6.0 0.00 0.00 0.00 57 1019.8
20260501184011 54 44 2.0 7.0 0.00 0.00 0.00 57 1019.8
20260501183506 54 52 3.0 7.0 0.00 0.00 0.00 57 1019.7
20260501183007 54 53 3.0 7.0 0.00 0.00 0.00 57 1019.7
20260501182506 54 64 4.0 10.0 0.00 0.00 0.00 57 1019.6
20260501182008 54 48 4.0 8.0 0.00 0.00 0.00 56 1019.6
20260501181507 54 47 4.0 9.0 0.00 0.00 0.00 56 1019.5
20260501180507 54 41 4.0 7.0 0.00 0.00 0.00 55 1019.4
20260501180006 54 39 5.0 9.0 0.00 0.00 0.00 55 1019.3
20260501175505 55 42 4.0 8.0 0.00 0.00 0.00 54 1019.3
20260501174506 55 35 5.0 10.0 0.00 0.00 0.00 53 1019.2
20260501174005 55 38 6.0 12.0 0.00 0.00 0.00 52 1019.2
20260501173505 55 46 5.0 12.0 0.00 0.00 0.00 52 1019.2
20260501173007 55 55 5.0 12.0 0.00 0.00 0.00 51 1019.2
20260501171507 56 43 6.0 13.0 0.00 0.00 0.00 51 1019.0
20260501171010 56 32 6.0 12.0 0.00 0.00 0.00 50 1019.0